Satellite-Ground Cal/Val Region Overpasses Predictions

Prediction of Satellite NPP Overpassing Cal/Val Region: PacNW

Region Location: (Latitude: 10.00, Longitude: 139.50) to (Latitude: 22.70, Longitude: 165.60).

Table of predicted overpasses for the next 14.0 days since TLE Epoch: 11/10/2014
Interval Starting Time Starting Location Ending Time Ending Location
1 11/11/2014 03:32:13 ( 10.02, 148.76) 11/11/2014 03:35:48 ( 22.64, 145.76)
2 11/11/2014 16:04:06 ( 22.70, 145.99) 11/11/2014 16:07:42 ( 10.02, 142.98)
3 11/12/2014 03:13:12 ( 10.06, 153.51) 11/12/2014 03:16:47 ( 22.68, 150.51)
4 11/12/2014 15:45:05 ( 22.66, 150.74) 11/12/2014 15:48:40 ( 10.04, 147.74)
5 11/13/2014 02:54:09 ( 10.04, 158.27) 11/13/2014 02:57:44 ( 22.66, 155.27)
6 11/13/2014 15:26:02 ( 22.68, 155.50) 11/13/2014 15:29:37 ( 10.06, 152.50)
7 11/14/2014 02:35:07 ( 10.02, 163.03) 11/14/2014 02:38:42 ( 22.64, 160.03)
8 11/14/2014 15:07:00 ( 22.70, 160.26) 11/14/2014 15:10:36 ( 10.02, 157.25)
9 11/15/2014 02:18:44 ( 19.40, 165.59) 11/15/2014 02:19:40 ( 22.68, 164.78)
10 11/15/2014 03:57:34 ( 10.01, 142.42) 11/15/2014 04:01:03 ( 22.28, 139.51)
11 11/15/2014 14:47:58 ( 22.65, 165.00) 11/15/2014 14:51:33 ( 10.03, 162.01)
12 11/15/2014 16:29:28 ( 22.65, 139.63) 11/15/2014 16:29:36 ( 22.18, 139.51)
13 11/16/2014 03:38:33 ( 10.05, 147.16) 11/16/2014 03:42:08 ( 22.68, 144.17)
14 11/16/2014 16:10:26 ( 22.66, 144.39) 11/16/2014 16:14:01 ( 10.04, 141.39)
15 11/17/2014 03:19:30 ( 10.04, 151.92) 11/17/2014 03:23:05 ( 22.66, 148.93)
16 11/17/2014 15:51:23 ( 22.67, 149.15) 11/17/2014 15:54:58 ( 10.05, 146.15)
17 11/18/2014 03:00:28 ( 10.03, 156.68) 11/18/2014 03:04:03 ( 22.65, 153.69)
18 11/18/2014 15:32:21 ( 22.68, 153.91) 11/18/2014 15:35:57 ( 10.01, 150.90)
19 11/19/2014 02:41:26 ( 10.02, 161.44) 11/19/2014 02:45:01 ( 22.64, 158.45)
20 11/19/2014 15:13:18 ( 22.69, 158.67) 11/19/2014 15:16:54 ( 10.02, 155.66)
21 11/20/2014 02:23:08 ( 12.65, 165.60) 11/20/2014 02:25:59 ( 22.69, 163.19)
22 11/20/2014 04:03:53 ( 10.02, 140.83) 11/20/2014 04:05:30 ( 15.72, 139.51)
23
